Weather History for KGWB - January, 2013

Change the Weather History Date:

Sunday, January 20, 2013

  Actual Average (KFWA) Record (KFWA)
Temperature  
Mean Temperature 29 °F 25 °F  
Max Temperature 41 °F 32 °F 68 °F (1906)
Min Temperature 17 °F 17 °F -22 °F (1985)
Degree Days  
Heating Degree Days 36 40  
Month to date heating degree days 799  
Since 1 July heating degree days 3127  
Cooling Degree Days 0 0  
Month to date cooling degree days 0  
Year to date cooling degree days 0  
Moisture  
Dew Point 13 °F    
Average Humidity 61    
Maximum Humidity 73    
Minimum Humidity 44    
Precipitation  
Precipitation 0.00 in 0.07 in 1.10 in (1913)
Month to date precipitation 1.52  
Year to date precipitation 1.52  
Snow  
Snow 0.00 in 0.30 in 3.80 in (2012)
Month to date snowfall 6.4  
Since 1 July snowfall 17.0  
Snow Depth -    
Sea Level Pressure  
Sea Level Pressure 30.09 in    
Wind  
Wind Speed 18 mph (WNW)    
Max Wind Speed 32 mph    
Max Gust Speed 44 mph    
Visibility 10 miles    
Events Snow    
T = Trace of Precipitation, MM = Missing Value Source: NWS Daily Summary

Daily Weather History Graph

Daily Weather History Graph

Search for Another Location

Airport or City:

Trip Planner

Search our weather history database for the weather conditions in past years. The results will help you decide how hot, cold, wet, or windy it might be!

Date:

Astronomy

Jan. 20, 2013 Rise Set
Actual Time 8:01 AM EST 5:42 PM EST
Civil Twilight 7:30 AM EST 6:12 PM EST
Nautical Twilight 6:57 AM EST 6:46 PM EST
Astronomical Twilight 6:24 AM EST 7:18 PM EST
Moon 12:43 PM EST (1/20) 2:32 AM EST (1/20)
Length of Visible Light 10h 41m
Length of Day
9h 41m
Waxing Gibbous, 66% of the Moon is Illuminated
Jan 20
Waxing Gibbous
Jan 26
Full
Feb 3
Last Quarter
Feb 10
New
Feb 17
First Quarter

Hourly Weather History & Observations

Time (EST) Temp. Windchill Dew Point Humidity Pressure Visibility Wind Dir Wind Speed Gust Speed Precip Events Conditions
12:15 AM 41.0 °F 32.2 °F 32.0 °F 70% 29.74 in 10.0 mi WSW 18.4 mph 26.5 mph N/A   Clear
12:35 AM 41.0 °F 31.6 °F 32.0 °F 70% 29.74 in 10.0 mi West 20.7 mph 38.0 mph N/A   Scattered Clouds
12:55 AM 41.0 °F 31.6 °F 28.4 °F 61% 29.75 in 10.0 mi West 20.7 mph 38.0 mph N/A   Clear
1:15 AM 39.2 °F 29.0 °F 28.4 °F 65% 29.75 in 10.0 mi West 21.9 mph 28.8 mph N/A   Clear
1:35 AM 39.2 °F 28.7 °F 28.4 °F 65% 29.76 in 10.0 mi West 23.0 mph 40.3 mph N/A   Scattered Clouds
1:55 AM 37.4 °F 27.2 °F 23.0 °F 56% 29.78 in 10.0 mi West 19.6 mph 33.4 mph N/A   Clear
2:15 AM 37.4 °F 26.4 °F 21.2 °F 52% 29.79 in 10.0 mi West 23.0 mph 33.4 mph N/A   Clear
2:35 AM 35.6 °F 23.7 °F 19.4 °F 52% 29.81 in 10.0 mi West 24.2 mph 38.0 mph N/A   Scattered Clouds
2:55 AM 33.8 °F 20.5 °F 19.4 °F 56% 29.84 in 10.0 mi WNW 27.6 mph 35.7 mph N/A   Scattered Clouds
3:15 AM 32.0 °F 17.2 °F 12.2 °F 44% 29.88 in 10.0 mi West 32.2 mph 39.1 mph N/A   Scattered Clouds
3:35 AM 30.2 °F 16.8 °F 14.0 °F 51% 29.90 in 10.0 mi West 23.0 mph 39.1 mph N/A   Clear
3:55 AM 30.2 °F 16.2 °F 12.2 °F 47% 29.91 in 10.0 mi WNW 25.3 mph 43.7 mph N/A   Clear
4:15 AM 28.4 °F 15.4 °F 12.2 °F 51% 29.92 in 10.0 mi WNW 19.6 mph 36.8 mph N/A   Clear
4:35 AM 28.4 °F 13.5 °F 14.0 °F 55% 29.93 in 10.0 mi West 26.5 mph 35.7 mph N/A   Scattered Clouds
4:55 AM 28.4 °F 14.1 °F 14.0 °F 55% 29.94 in 10.0 mi West 24.2 mph 39.1 mph N/A   Mostly Cloudy
5:15 AM 26.6 °F 11.4 °F 14.0 °F 59% 29.97 in 10.0 mi WNW 25.3 mph 35.7 mph N/A   Overcast
5:35 AM 26.6 °F 13.4 °F 12.2 °F 55% 29.98 in 10.0 mi WNW 18.4 mph 33.4 mph N/A   Mostly Cloudy
5:55 AM 26.6 °F 13.4 °F 10.4 °F 51% 30.00 in 10.0 mi WNW 18.4 mph 28.8 mph N/A   Overcast
6:15 AM 26.6 °F 12.7 °F 12.2 °F 55% 30.01 in 10.0 mi WNW 20.7 mph 26.5 mph N/A   Overcast
6:35 AM 23.0 °F 7.6 °F 10.4 °F 59% 30.03 in 10.0 mi WNW 21.9 mph 33.4 mph N/A   Scattered Clouds
6:55 AM 23.0 °F 9.2 °F 12.2 °F 63% 30.04 in 10.0 mi WNW 17.3 mph 32.2 mph N/A   Scattered Clouds
7:15 AM 23.0 °F 8.3 °F 14.0 °F 68% 30.06 in 10.0 mi WNW 19.6 mph 28.8 mph N/A Snow Light Snow
7:35 AM 23.0 °F 8.3 °F 12.2 °F 63% 30.08 in 10.0 mi WNW 19.6 mph 28.8 mph N/A   Mostly Cloudy
7:55 AM 21.2 °F 6.8 °F 10.4 °F 63% 30.09 in 10.0 mi NW 17.3 mph 23.0 mph N/A   Scattered Clouds
8:15 AM 21.2 °F 5.2 °F 8.6 °F 58% 30.11 in 10.0 mi WNW 21.9 mph 29.9 mph N/A   Scattered Clouds
8:35 AM 21.2 °F 7.3 °F 10.4 °F 63% 30.12 in 10.0 mi WNW 16.1 mph 27.6 mph N/A   Mostly Cloudy
8:55 AM 21.2 °F 6.4 °F 8.6 °F 58% 30.14 in 10.0 mi WNW 18.4 mph 24.2 mph N/A Snow Light Snow
9:15 AM 21.2 °F 8.3 °F 12.2 °F 68% 30.16 in 4.0 mi NW 13.8 mph 21.9 mph N/A Snow Light Snow
9:35 AM 21.2 °F 6.8 °F 10.4 °F 63% 30.17 in 10.0 mi WNW 17.3 mph 27.6 mph N/A Snow Light Snow
9:55 AM 21.2 °F 7.3 °F 10.4 °F 63% 30.18 in 10.0 mi WNW 16.1 mph 24.2 mph N/A Snow Light Snow
10:15 AM 21.2 °F 7.3 °F 8.6 °F 58% 30.19 in 10.0 mi WNW 16.1 mph 23.0 mph N/A Snow Light Snow
10:35 AM 21.2 °F 7.8 °F 10.4 °F 63% 30.20 in 10.0 mi WNW 15.0 mph 21.9 mph N/A Snow Light Snow
10:55 AM 21.2 °F 7.3 °F 10.4 °F 63% 30.21 in 10.0 mi WNW 16.1 mph 23.0 mph N/A Snow Light Snow
11:15 AM 21.2 °F 7.8 °F 8.6 °F 58% 30.21 in 10.0 mi NW 15.0 mph 23.0 mph N/A   Overcast
11:35 AM 23.0 °F 9.6 °F 10.4 °F 59% 30.21 in 10.0 mi WNW 16.1 mph 24.2 mph N/A   Overcast
11:55 AM 23.0 °F 10.1 °F 10.4 °F 59% 30.21 in 10.0 mi WNW 15.0 mph 21.9 mph N/A   Overcast
12:15 PM 23.0 °F 10.1 °F 10.4 °F 59% 30.20 in 10.0 mi WNW 15.0 mph 21.9 mph N/A   Overcast
12:35 PM 23.0 °F 10.6 °F 10.4 °F 59% 30.19 in 10.0 mi WNW 13.8 mph 19.6 mph N/A   Overcast
12:55 PM 23.0 °F 10.6 °F 10.4 °F 59% 30.18 in 10.0 mi West 13.8 mph - N/A   Overcast
1:15 PM 23.0 °F 9.2 °F 10.4 °F 59% 30.18 in 10.0 mi WNW 17.3 mph - N/A   Mostly Cloudy
1:35 PM 23.0 °F 10.6 °F 10.4 °F 59% 30.17 in 10.0 mi WNW 13.8 mph 19.6 mph N/A   Scattered Clouds
1:55 PM 23.0 °F 10.6 °F 10.4 °F 59% 30.18 in 10.0 mi WNW 13.8 mph 18.4 mph N/A   Mostly Cloudy
2:15 PM 24.8 °F 11.9 °F 10.4 °F 54% 30.18 in 10.0 mi West 16.1 mph 19.6 mph N/A   Mostly Cloudy
2:35 PM 23.0 °F 11.1 °F 10.4 °F 59% 30.19 in 10.0 mi WNW 12.7 mph 18.4 mph N/A   Mostly Cloudy
2:55 PM 23.0 °F 10.6 °F 10.4 °F 59% 30.19 in 10.0 mi WNW 13.8 mph 18.4 mph N/A   Overcast
3:15 PM 23.0 °F 10.1 °F 10.4 °F 59% 30.19 in 10.0 mi West 15.0 mph 18.4 mph N/A   Overcast
3:35 PM 23.0 °F 11.1 °F 10.4 °F 59% 30.19 in 10.0 mi WNW 12.7 mph - N/A   Overcast
3:55 PM 23.0 °F 11.1 °F 10.4 °F 59% 30.20 in 10.0 mi WNW 12.7 mph - N/A   Overcast
4:15 PM 23.0 °F 11.7 °F 10.4 °F 59% 30.19 in 10.0 mi WNW 11.5 mph - N/A   Mostly Cloudy
4:35 PM 21.2 °F 10.1 °F 10.4 °F 63% 30.20 in 10.0 mi West 10.4 mph 18.4 mph N/A   Scattered Clouds
4:55 PM 21.2 °F 11.7 °F 10.4 °F 63% 30.20 in 10.0 mi West 8.1 mph - N/A   Mostly Cloudy
5:15 PM 21.2 °F 10.1 °F 10.4 °F 63% 30.20 in 10.0 mi West 10.4 mph - N/A   Overcast
5:35 PM 21.2 °F 8.3 °F 10.4 °F 63% 30.20 in 10.0 mi West 13.8 mph 18.4 mph N/A   Overcast
6:15 PM 21.2 °F 10.1 °F 8.6 °F 58% 30.20 in 10.0 mi West 10.4 mph - N/A   Scattered Clouds
6:35 PM 19.4 °F 9.5 °F 8.6 °F 63% 30.21 in 10.0 mi WNW 8.1 mph - N/A   Clear
6:55 PM 19.4 °F 9.5 °F 10.4 °F 68% 30.20 in 10.0 mi WNW 8.1 mph - N/A   Clear
7:15 PM 19.4 °F 9.5 °F 10.4 °F 68% 30.20 in 10.0 mi WNW 8.1 mph - N/A   Clear
7:35 PM 19.4 °F 8.6 °F 10.4 °F 68% 30.21 in 10.0 mi WNW 9.2 mph - N/A   Clear
7:55 PM 19.4 °F 7.9 °F 10.4 °F 68% 30.20 in 10.0 mi WNW 10.4 mph - N/A   Scattered Clouds
8:15 PM 19.4 °F 9.5 °F 8.6 °F 63% 30.20 in 10.0 mi West 8.1 mph - N/A   Scattered Clouds
8:35 PM 19.4 °F 10.4 °F 10.4 °F 68% 30.20 in 10.0 mi West 6.9 mph - N/A   Clear
8:55 PM 17.6 °F 9.3 °F 10.4 °F 73% 30.20 in 10.0 mi West 5.8 mph - N/A   Clear
9:15 PM 17.6 °F 9.3 °F 10.4 °F 73% 30.19 in 10.0 mi West 5.8 mph - N/A   Scattered Clouds
9:35 PM 17.6 °F 9.3 °F 8.6 °F 68% 30.19 in 10.0 mi West 5.8 mph - N/A   Scattered Clouds
9:55 PM 17.6 °F 10.7 °F 8.6 °F 68% 30.19 in 10.0 mi West 4.6 mph - N/A   Clear
10:15 PM 17.6 °F 12.3 °F 8.6 °F 68% 30.17 in 10.0 mi West 3.5 mph - N/A   Mostly Cloudy
10:35 PM 17.6 °F 12.3 °F 10.4 °F 73% 30.17 in 10.0 mi West 3.5 mph - N/A   Overcast
10:55 PM 19.4 °F 14.3 °F 10.4 °F 68% 30.17 in 10.0 mi West 3.5 mph - N/A   Overcast
11:15 PM 19.4 °F 14.3 °F 10.4 °F 68% 30.17 in 10.0 mi West 3.5 mph - N/A   Overcast
11:35 PM 17.6 °F 12.3 °F 10.4 °F 73% 30.17 in 10.0 mi West 3.5 mph - N/A   Mostly Cloudy
11:55 PM 17.6 °F 12.3 °F 10.4 °F 73% 30.16 in 10.0 mi West 3.5 mph - N/A   Mostly Cloudy